[[{"header":{"parameterUnit":"m.s-1","parameterCategory":2,"la1":30.2991,"la2":30.254,"lo1":-89.0895,"lo2":-89.0444,"dy":0.0017,"dx":0.0017,"nx":28,"ny":28,"refTime":"2024-08-29T03:00:00:Z","depth":"0","parameterNumber":2,"parameterNumberName":"U-component_of_CURRENTS"},"data":[0,0,0,0,0,0,0,0,0,0,0,0,0,0,0,0,0,0,0,0,0,0,0,0,0,0,0,0,0,0,0,0,0,0,0,0,0,0,0,0,0,0,0,0,0,0,0,0,0,0,0,0,0,0,0,0,0,0,0.2635,0.2635,0,0.263,0.2629,0.2629,0.2612,0.2612,0.2612,0.2611,0.2633,0.2634,0.2634,0,0,0,0,0,0,0,0,0,0,0,0,0,0.268,0.2679,0.2635,0.2635,0.2635,0.263,0.2629,0.2629,0.2612,0.2612,0.2612,0.2611,0.2632,0.2633,0.2634,0,0,0,0,0,0,0,0,0,0,0,0,0,0.2665,0.2678,0.2635,0.2627,0.2626,0.263,0.2629,0.2629,0.2613,0.2612,0.2612,0.2611,0.2632,0.2633,0.2635,0.2652,0,0,0.2639,0.2639,0,0,0,0,0,0,0,0,0.2666,0.2663,0.2628,0.2627,0.2626,0.2622,0.2653,0.2638,0.2613,0.2617,0.2611,0.2611,0.2632,0.2633,0.2632,0.2653,0.2654,0.2639,0.2639,0.264,0.264,0,0,0,0,0,0,0,0.2667,0.2664,0.2632,0.2628,0.2627,0.264,0.2636,0.265,0.2627,0.2617,0.2615,0.2616,0.2632,0.2631,0.2633,0.2654,0.2639,0.264,0.2641,0.2641,0.2716,0.2718,0,0,0,0,0,0,0.2666,0.2664,0.2633,0.2632,0.2646,0.2639,0.2635,0.2623,0.2627,0.2627,0.2616,0.2615,0.2629,0.2631,0.2633,0.2681,0.264,0.2641,0.2642,0.2715,0.2717,0.2718,0,0,0,0,0,0,0.2667,0.2663,0.2633,0.265,0.2647,0.2638,0.2625,0.2623,0.2625,0.2626,0.2627,0.2619,0.2629,0.2632,0.265,0.268,0.2642,0.2643,0.2714,0.2716,0.2717,0.2758,0,0,0,0,0,0,0.2668,0.2663,0.266,0.2649,0.2646,0.2639,0.2625,0.2624,0.2626,0.2624,0.2629,0.263,0.2629,0.2648,0.2652,0.2681,0.2644,0.2712,0.2715,0.2717,0.2755,0.2761,0.2766,0,0,0,0,0,0.267,0.2664,0.266,0.2657,0.2639,0.264,0.2639,0.2632,0.2626,0.2631,0.2634,0.263,0.2666,0.265,0.2654,0.2685,0.2711,0.2714,0.2717,0.2753,0.276,0.2766,0,0,0,0,0,0,0.2686,0.2662,0.2657,0.2645,0.2646,0.2637,0.2639,0.2637,0.2642,0.2643,0.2642,0.2644,0.2675,0.2673,0.2656,0.2714,0.269,0.2694,0.2717,0.2723,0.2729,0.275,0.2645,0,0,0,0,0,0.2688,0.2673,0.2663,0.2657,0.2655,0.265,0.2651,0.2648,0.2649,0.265,0.2653,0.2665,0.269,0.2699,0.2714,0.2742,0.2753,0.2765,0.2771,0.2775,0.2796,0.2833,0.2844,0.2727,0.2727,0.2727,0,0,0.2692,0.2679,0.267,0.266,0.2656,0.2667,0.2649,0.2652,0.2671,0.2654,0.2677,0.2684,0.2702,0.2735,0.2749,0.2735,0.2814,0.2779,0.2783,0.2801,0.2838,0.2849,0.2859,0.2729,0.2729,0.2728,0,0,0.2697,0.2682,0.2673,0.2677,0.2677,0.268,0.2684,0.2679,0.2686,0.2708,0.271,0.2736,0.2755,0.2782,0.2798,0.2845,0.2843,0.2845,0.289,0.2926,0.2936,0.2945,0.2967,0.2978,0.2846,0.2846,0.2846,0,0.2707,0.2693,0.2676,0.2681,0.2691,0.2689,0.2702,0.2716,0.2722,0.2743,0.2721,0.2778,0.2786,0.2851,0.2867,0.2861,0.2871,0.2861,0.2933,0.2943,0.2951,0.2972,0.2983,0.2848,0.2848,0.2848,0.2848,0,0.2706,0.2707,0.2706,0.271,0.2724,0.2733,0.2751,0.277,0.2777,0.2796,0.2846,0.2854,0.2891,0.2899,0.2899,0.2971,0.2955,0.2936,0.2916,0.2966,0.2984,0.2995,0.2852,0.2851,0.285,0.285,0,0,0.2697,0.2703,0.2704,0.272,0.274,0.2753,0.2795,0.2837,0.2879,0.2889,0.294,0.2984,0.2986,0.3006,0.3007,0.3039,0.3103,0.3015,0.3016,0.3037,0.3174,0.313,0.3137,0.3091,0.3093,0.3095,0.316,0,0.2704,0.2719,0.2723,0.2761,0.2774,0.28,0.2845,0.289,0.2924,0.2974,0.3003,0.3049,0.3028,0.3045,0.3078,0.3107,0.3136,0.3087,0.3125,0.3126,0.308,0.315,0.3047,0.3093,0.317,0.3172,0.3174,0,0.2698,0.2713,0.274,0.2792,0.2802,0.2833,0.2911,0.2952,0.3031,0.3057,0.3107,0.3123,0.3191,0.3147,0.3227,0.3194,0.3195,0.3201,0.3203,0.316,0.3103,0.3058,0.311,0.3036,0.3191,0.3189,0.3188,0,0.2691,0.2728,0.2753,0.2768,0.2825,0.2858,0.29,0.2979,0.3027,0.3114,0.3156,0.322,0.326,0.3282,0.33,0.3268,0.3371,0.3324,0.3283,0.3279,0.3201,0.3186,0.3187,0.3374,0.3374,0.3374,0.3374,0,0.2689,0.2711,0.2755,0.2769,0.282,0.2868,0.2932,0.2988,0.3077,0.3139,0.3198,0.3249,0.3297,0.3349,0.3341,0.3362,0.3407,0.3319,0.3306,0.321,0.3196,0.3133,0.31,0.3377,0.3376,0.3376,0.3375,0,0.2669,0.2693,0.2726,0.2789,0.281,0.2849,0.2929,0.298,0.3079,0.316,0.319,0.33,0.3369,0.3405,0.3455,0.3422,0.3342,0.3421,0.3302,0.3274,0.3139,0.3112,0.2995,0.29,0.3388,0.3387,0.3387,0,0.2655,0.267,0.2724,0.274,0.2765,0.2823,0.2858,0.2959,0.3014,0.3175,0.3211,0.3324,0.3371,0.3451,0.343,0.3431,0.3319,0.3317,0.3238,0.3146,0.3107,0.2968,0.2887,0.3148,0.3145,0.3143,0.3142,0,0.2635,0.2654,0.2678,0.2705,0.2737,0.2772,0.2836,0.2876,0.3,0.3075,0.3177,0.3238,0.3345,0.3313,0.334,0.3316,0.3161,0.3275,0.3217,0.2964,0.2777,0.2675,0.3086,0.3124,0.3126,0.3127,0.3128,0.3129,0.2612,0.2616,0.2639,0.2652,0.2683,0.27,0.2696,0.2773,0.2832,0.2912,0.3052,0.3094,0.3181,0.3207,0.3176,0.3075,0.3033,0.2964,0.2954,0.2833,0.2692,0.3065,0.3062,0.3063,0.3064,0.3065,0.3066,0,0.2559,0.256,0.2581,0.2577,0.2564,0.2615,0.2653,0.2631,0.2636,0.2752,0.2813,0.2879,0.2879,0.2927,0.2911,0.2793,0.2638,0.2692,0.2485,0.2432,0.281,0.2752,0.2635,0.2635,0.2636,0.2636,0.2636,0.2636,0.2529,0.2505,0.25,0.2441,0.2442,0.2389,0.2382,0.2376,0.2424,0.2423,0.2447,0.2532,0.2694,0.275,0.2668,0.2592,0.238,0.2243,0.2224,0.2523,0.2546,0.2569,0.2507,0.2341,0.234,0.1733,0.1729,0.1725]},{"header":{"parameterUnit":"m.s-1","parameterCategory":2,"la1":30.2991,"la2":30.254,"lo1":-89.0895,"lo2":-89.0444,"dy":0.0017,"dx":0.0017,"nx":28,"ny":28,"refTime":"2024-08-29T03:00:00:Z","depth":"0","parameterNumber":3,"parameterNumberName":"V-component_of_CURRENTS"},"data":[0,0,0,0,0,0,0,0,0,0,0,0,0,0,0,0,0,0,0,0,0,0,0,0,0,0,0,0,0,0,0,0,0,0,0,0,0,0,0,0,0,0,0,0,0,0,0,0,0,0,0,0,0,0,0,0,0,0,0.0122,0.0122,0,0.0085,0.0085,0.0084,0.0051,0.0051,0.005,0.005,-0.0019,-0.0021,-0.0022,0,0,0,0,0,0,0,0,0,0,0,0,0,0.0121,0.0122,0.0122,0.0122,0.0121,0.0085,0.0085,0.0084,0.0051,0.0051,0.005,0.005,-0.0019,-0.002,-0.0022,0,0,0,0,0,0,0,0,0,0,0,0,0,0.0106,0.0122,0.0122,0.0101,0.0099,0.0085,0.0085,0.0084,0.0051,0.0051,0.005,0.005,-0.0018,-0.002,-0.0023,-0.0028,0,0,-0.003,-0.0031,0,0,0,0,0,0,0,0,0.0107,0.0106,0.0105,0.0103,0.01,0.0073,0.0059,0.0045,0.0051,0.0068,0.005,0.0049,0.001,0.0005,-0.0002,-0.0032,-0.0034,-0.003,-0.0031,-0.0032,-0.0033,0,0,0,0,0,0,0,0.0108,0.0107,0.0106,0.0104,0.0102,0.0079,0.0077,0.0056,0.004,0.0066,0.0064,0.0062,0.0008,0.0,-0.0004,-0.0036,-0.003,-0.0032,-0.0033,-0.0034,-0.0068,-0.0067,0,0,0,0,0,0,0.0118,0.0108,0.0107,0.0105,0.0104,0.008,0.0077,0.0081,0.0041,0.0035,0.0063,0.0061,0.0005,-0.0001,-0.0006,-0.0002,-0.0032,-0.0035,-0.0036,-0.0068,-0.0068,-0.0067,0,0,0,0,0,0,0.0118,0.0118,0.0109,0.0106,0.0104,0.0081,0.0086,0.0081,0.0075,0.0039,0.0032,0.0062,0.0004,-0.0003,-0.0019,-0.0006,-0.0036,-0.0038,-0.0069,-0.0068,-0.0067,-0.0003,0,0,0,0,0,0,0.0118,0.0119,0.0123,0.0107,0.0104,0.0109,0.0086,0.0081,0.0075,0.0072,0.0036,0.0029,0.0003,-0.0015,-0.0021,-0.001,-0.004,-0.007,-0.0069,-0.0068,-0.0006,-0.0,0.0005,0,0,0,0,0,0.0118,0.0131,0.0124,0.0124,0.0112,0.0109,0.0106,0.0087,0.0076,0.0079,0.0054,0.003,-0.0013,-0.0017,-0.0024,-0.0013,-0.007,-0.0069,-0.0068,-0.0008,-0.0001,0.0005,0,0,0,0,0,0,0.013,0.0128,0.012,0.0131,0.0123,0.0104,0.0104,0.0093,0.0076,0.0071,0.0036,0.0027,0.0017,-0.0006,-0.0008,-0.002,-0.0045,-0.0045,0.0003,0.0009,0.0014,0.0031,-0.0042,0,0,0,0,0,0.0137,0.0146,0.0137,0.0144,0.0143,0.0125,0.012,0.0109,0.0093,0.0085,0.0061,0.0035,0.0017,0.0007,-0.0016,-0.0021,-0.0044,-0.0018,-0.0013,-0.0008,0.0001,-0.0019,-0.0014,-0.0063,-0.0063,-0.0063,0,0,0.0141,0.0142,0.0146,0.0147,0.0138,0.0146,0.0121,0.012,0.0129,0.008,0.0081,0.0051,0.0019,0.0013,0.0006,-0.0005,-0.0008,-0.0007,-0.0003,0.0004,-0.0017,-0.0012,-0.0008,-0.0063,-0.0063,-0.0063,0,0,0.0162,0.0159,0.0175,0.0174,0.017,0.0162,0.0166,0.0153,0.0149,0.0146,0.0114,0.0096,0.0067,0.0049,0.0036,0.0057,0.0019,0.0047,0.009,0.0072,0.0076,0.0079,0.0053,0.0053,0.0052,0.0053,0.0053,0,0.0166,0.0189,0.0178,0.0193,0.02,0.0174,0.0196,0.0189,0.0172,0.0178,0.0155,0.012,0.0087,0.0087,0.009,0.007,0.005,0.007,0.0079,0.0082,0.0084,0.0057,0.0057,0.0056,0.0055,0.0055,0.0055,0,0.0202,0.0217,0.0226,0.0241,0.0247,0.0258,0.0253,0.0258,0.0247,0.0239,0.0236,0.019,0.0172,0.0156,0.0127,0.0131,0.0107,0.0087,0.0066,0.0093,0.0062,0.0061,0.006,0.0059,0.0058,0.0057,0,0,0.0222,0.0248,0.0251,0.0275,0.0276,0.0291,0.0307,0.0324,0.0352,0.0317,0.0346,0.0296,0.0267,0.025,0.0209,0.0189,0.0178,0.0148,0.0146,0.0128,0.0132,0.012,0.0117,0.0159,0.0159,0.016,0.0102,0,0.0254,0.0302,0.0304,0.035,0.0378,0.0369,0.0395,0.0404,0.0405,0.0425,0.0376,0.0376,0.0305,0.0298,0.0266,0.021,0.0178,0.0195,0.0103,0.0101,0.0092,0.0117,0.0145,0.0098,0.0101,0.01,0.01,0,0.0293,0.0323,0.0379,0.0427,0.0439,0.0464,0.0515,0.0535,0.0545,0.0546,0.0527,0.0484,0.0447,0.0384,0.029,0.0304,0.0221,0.0166,0.0162,0.013,0.0088,0.007,0.0094,-0.0038,0.0097,0.0098,0.0098,0,0.0334,0.038,0.0433,0.0447,0.049,0.0524,0.055,0.0576,0.0619,0.0625,0.0655,0.0585,0.0574,0.0462,0.0332,0.0312,0.0233,0.019,0.0095,0.0093,0.0089,0.0087,-0.0019,0.0115,0.0115,0.0115,0.0115,0,0.0377,0.0419,0.0462,0.0494,0.0574,0.0581,0.0667,0.0684,0.0726,0.0797,0.0721,0.0757,0.0594,0.0523,0.0378,0.0245,0.0261,0.0111,0.0084,0.0111,0.0112,-0.0027,-0.011,0.0113,0.0114,0.0114,0.0114,0,0.0419,0.044,0.0512,0.0572,0.06,0.066,0.075,0.0811,0.0838,0.0931,0.0936,0.0894,0.0803,0.0632,0.0465,0.0325,0.0105,0.0121,0.0162,0.014,-0.0075,-0.0155,-0.0298,-0.0364,0.0011,0.001,0.001,0,0.0447,0.0487,0.0576,0.0631,0.0666,0.0752,0.0819,0.0867,0.0941,0.1024,0.1078,0.1019,0.1003,0.0754,0.0493,0.0246,0.0094,0.0098,0.0058,-0.0074,-0.0185,-0.0247,-0.0297,0.0071,0.0071,0.0071,0.0071,0,0.0505,0.0536,0.0596,0.0706,0.079,0.0884,0.0983,0.106,0.1133,0.1221,0.131,0.1304,0.1078,0.0849,0.0508,0.0329,0.0012,0.0091,-0.0052,-0.0146,-0.0214,-0.0294,0.0084,0.0072,0.0072,0.0072,0.0072,0.0072,0.0553,0.0606,0.0687,0.079,0.0884,0.1002,0.1092,0.121,0.1346,0.149,0.1475,0.1517,0.1183,0.0729,0.0463,0.0018,-0.0006,-0.0117,-0.0204,-0.0256,-0.0315,0.0062,0.0023,0.0023,0.0023,0.0022,0.0022,0,0.0609,0.0667,0.0766,0.0887,0.0986,0.103,0.1191,0.1293,0.1466,0.1613,0.1694,0.1576,0.1159,0.0724,0.0115,-0.0211,-0.0333,-0.0385,-0.0468,-0.0507,-0.0169,-0.0161,-0.0233,-0.0233,-0.0233,-0.0233,-0.0233,-0.0232,0.0642,0.0732,0.0777,0.0942,0.1029,0.1174,0.1267,0.1435,0.1572,0.1762,0.1822,0.1823,0.1499,0.0413,-0.0329,-0.0502,-0.0722,-0.0766,-0.0898,-0.0668,-0.0649,-0.0632,-0.0643,-0.0815,-0.0816,-0.1178,-0.1182,-0.1185]}],[{"header":{"parameterUnit":"m.s-1","parameterCategory":2,"la1":30.2991,"la2":30.254,"lo1":-89.0895,"lo2":-89.0444,"dy":0.0017,"dx":0.0017,"nx":28,"ny":28,"refTime":"2024-08-29T03:00:00:Z","depth":"2","parameterNumber":2,"parameterNumberName":"U-component_of_CURRENTS"},"data":[0,0,0,0,0,0,0,0,0,0,0,0,0,0,0,0,0,0,0,0,0,0,0,0,0,0,0,0,0,0,0,0,0,0,0,0,0,0,0,0,0,0,0,0,0,0,0,0,0,0,0,0,0,0,0,0,0,0,0.2258,0.2259,0,0.2272,0.2272,0.2272,0.2269,0.2268,0.2268,0.2268,0.2286,0.2286,0.2287,0,0,0,0,0,0,0,0,0,0,0,0,0,0.2243,0.2243,0.2258,0.2259,0.2259,0.2272,0.2272,0.2272,0.2269,0.2268,0.2268,0.2268,0.2286,0.2286,0.2287,0,0,0,0,0,0,0,0,0,0,0,0,0,0.2251,0.2243,0.2258,0.226,0.2261,0.2272,0.2272,0.2272,0.2269,0.2268,0.2268,0.2268,0.2286,0.2286,0.2287,0.2294,0,0,0.229,0.229,0,0,0,0,0,0,0,0,0.225,0.2251,0.226,0.226,0.2261,0.227,0.2273,0.228,0.2269,0.2264,0.2268,0.2268,0.2283,0.2284,0.2283,0.2295,0.2296,0.229,0.229,0.2291,0.2291,0,0,0,0,0,0,0,0.225,0.225,0.2262,0.226,0.2261,0.2266,0.2266,0.2274,0.2272,0.2264,0.2264,0.2269,0.2283,0.2283,0.2284,0.2296,0.229,0.229,0.2291,0.2291,0.2361,0.2362,0,0,0,0,0,0,0.2252,0.225,0.2261,0.2262,0.2257,0.2266,0.2267,0.2266,0.2272,0.2273,0.2269,0.2269,0.2281,0.2283,0.2284,0.2333,0.2291,0.2291,0.2292,0.2359,0.2361,0.2363,0,0,0,0,0,0,0.2251,0.2252,0.2261,0.2258,0.226,0.2267,0.2265,0.2266,0.2277,0.2276,0.2277,0.2281,0.2281,0.2283,0.2304,0.2332,0.2292,0.2292,0.2358,0.236,0.2362,0.2405,0,0,0,0,0,0,0.225,0.2252,0.2258,0.2258,0.226,0.2275,0.2266,0.2266,0.228,0.228,0.2287,0.2287,0.2281,0.2303,0.2305,0.2333,0.2293,0.2356,0.2359,0.2361,0.2402,0.2409,0.2414,0,0,0,0,0,0.225,0.2255,0.2258,0.226,0.2266,0.2276,0.2278,0.2281,0.2281,0.2289,0.2296,0.2288,0.2321,0.2305,0.2307,0.2335,0.2355,0.2358,0.2361,0.24,0.2407,0.2414,0,0,0,0,0,0,0.2251,0.2255,0.2259,0.2265,0.2276,0.2277,0.2286,0.229,0.2301,0.2304,0.2301,0.2302,0.2334,0.2329,0.2311,0.2364,0.2339,0.2342,0.2368,0.2375,0.2381,0.2397,0.2294,0,0,0,0,0,0.2256,0.2261,0.2268,0.2275,0.2281,0.2287,0.2294,0.2298,0.2306,0.2311,0.2315,0.2326,0.2347,0.2356,0.2367,0.2392,0.24,0.2414,0.242,0.2425,0.2441,0.2474,0.2484,0.2373,0.2373,0.2373,0,0,0.2257,0.2263,0.2265,0.2277,0.2283,0.2299,0.2291,0.2306,0.2325,0.2312,0.2339,0.2347,0.2359,0.2389,0.2403,0.2389,0.2461,0.2429,0.2433,0.2447,0.2478,0.2489,0.2499,0.2375,0.2374,0.2374,0,0,0.2263,0.227,0.2276,0.2289,0.2307,0.2314,0.2323,0.2332,0.2345,0.2371,0.2373,0.2401,0.2418,0.2437,0.2449,0.2497,0.2492,0.25,0.2543,0.2575,0.2584,0.2592,0.2615,0.2625,0.2502,0.2502,0.2502,0,0.2268,0.2275,0.2282,0.2297,0.2311,0.2324,0.234,0.2359,0.2376,0.2395,0.2386,0.2439,0.2446,0.2499,0.2518,0.2513,0.2524,0.2512,0.2582,0.2591,0.2599,0.2619,0.263,0.2505,0.2504,0.2504,0.2504,0,0.2277,0.229,0.2297,0.2321,0.2339,0.2355,0.2382,0.2406,0.2423,0.2442,0.2493,0.2507,0.2539,0.255,0.2551,0.2616,0.2604,0.2585,0.2562,0.2613,0.2631,0.2641,0.2508,0.2507,0.2507,0.2506,0,0,0.2264,0.2296,0.23,0.2317,0.2353,0.2368,0.2412,0.2452,0.2491,0.2516,0.2566,0.2608,0.2618,0.2635,0.2641,0.2675,0.274,0.266,0.2661,0.268,0.2809,0.2754,0.2759,0.2732,0.2734,0.2735,0.2798,0,0.2268,0.2296,0.2314,0.235,0.2367,0.2401,0.2443,0.2488,0.2527,0.2579,0.2615,0.2663,0.265,0.2675,0.2708,0.2739,0.277,0.2725,0.276,0.2762,0.2704,0.277,0.2547,0.2581,0.2808,0.281,0.2811,0,0.2267,0.2289,0.2318,0.2369,0.2381,0.2412,0.2483,0.2523,0.2603,0.2637,0.2692,0.2717,0.2788,0.2761,0.2838,0.281,0.2819,0.2833,0.2835,0.2778,0.2726,0.2568,0.259,0.2828,0.2826,0.2825,0.2824,0,0.2246,0.2291,0.2315,0.2332,0.2392,0.2423,0.2465,0.2542,0.2588,0.2684,0.2729,0.2796,0.2848,0.2875,0.2904,0.2879,0.298,0.2939,0.2896,0.2891,0.2707,0.2682,0.299,0.299,0.299,0.299,0.2989,0,0.2235,0.2256,0.2312,0.2325,0.2368,0.2422,0.2482,0.2538,0.2629,0.2687,0.2759,0.2816,0.2883,0.2938,0.2939,0.2959,0.3005,0.2926,0.2914,0.2715,0.2692,0.2906,0.2896,0.2992,0.2991,0.2991,0.2991,0,0.22,0.2233,0.2264,0.2332,0.2354,0.2391,0.2479,0.2524,0.2625,0.2707,0.2742,0.2859,0.2934,0.2982,0.3044,0.3009,0.3026,0.3013,0.2777,0.2736,0.2904,0.2895,0.2974,0.2973,0.2972,0.2971,0.2971,0,0.2181,0.2194,0.2257,0.2274,0.2304,0.2364,0.24,0.2505,0.2554,0.2715,0.2746,0.2871,0.2921,0.3006,0.2981,0.2983,0.3026,0.2766,0.2676,0.2928,0.2908,0.29,0.2893,0.2446,0.2441,0.2437,0.2434,0,0.2146,0.217,0.2194,0.223,0.2266,0.2302,0.2369,0.2403,0.2526,0.2597,0.2691,0.2755,0.2862,0.2776,0.2807,0.2767,0.2748,0.2684,0.3018,0.2488,0.2436,0.2414,0.2423,0.2398,0.2401,0.2404,0.2406,0.2407,0.2115,0.2121,0.2151,0.2172,0.2207,0.222,0.2215,0.2284,0.2334,0.2407,0.2545,0.2564,0.2612,0.2547,0.2468,0.2406,0.2588,0.2452,0.2462,0.2477,0.2408,0.2357,0.2291,0.2294,0.2296,0.2299,0.2301,0,0.206,0.207,0.209,0.2095,0.2083,0.2141,0.2166,0.2131,0.2125,0.2231,0.2285,0.214,0.2109,0.215,0.2008,0.2007,0.1959,0.1914,0.1826,0.1865,0.1899,0.1797,0.1521,0.1518,0.1515,0.1513,0,0,0.2032,0.2013,0.2011,0.1959,0.1968,0.1912,0.19,0.1864,0.1889,0.1862,0.1863,0.2036,0.2111,0.1797,0.1754,0.1612,0.1719,0.1546,0.218,0.2118,0.2148,0.2228,0.2119,0,0,0,0,0]},{"header":{"parameterUnit":"m.s-1","parameterCategory":2,"la1":30.2991,"la2":30.254,"lo1":-89.0895,"lo2":-89.0444,"dy":0.0017,"dx":0.0017,"nx":28,"ny":28,"refTime":"2024-08-29T03:00:00:Z","depth":"2","parameterNumber":3,"parameterNumberName":"V-component_of_CURRENTS"},"data":[0,0,0,0,0,0,0,0,0,0,0,0,0,0,0,0,0,0,0,0,0,0,0,0,0,0,0,0,0,0,0,0,0,0,0,0,0,0,0,0,0,0,0,0,0,0,0,0,0,0,0,0,0,0,0,0,0,0,0.0124,0.0124,0,0.0089,0.0089,0.0088,0.0061,0.0061,0.0061,0.006,0.0,-0.0001,-0.0002,0,0,0,0,0,0,0,0,0,0,0,0,0,0.0129,0.0129,0.0124,0.0124,0.0123,0.0089,0.0089,0.0088,0.0061,0.0061,0.0061,0.006,0.0001,-0.0001,-0.0002,0,0,0,0,0,0,0,0,0,0,0,0,0,0.0113,0.0129,0.0124,0.0106,0.0104,0.0089,0.0089,0.0088,0.0061,0.0061,0.0061,0.006,0.0001,-0.0001,-0.0003,-0.0009,0,0,-0.0009,-0.001,0,0,0,0,0,0,0,0,0.0114,0.0113,0.0109,0.0107,0.0105,0.0079,0.0068,0.0054,0.0061,0.0077,0.006,0.006,0.0025,0.0021,0.0015,-0.0012,-0.0014,-0.0009,-0.001,-0.0011,-0.0012,0,0,0,0,0,0,0,0.0115,0.0114,0.011,0.0109,0.0106,0.0086,0.0084,0.0065,0.0053,0.0076,0.0074,0.0071,0.0024,0.0017,0.0013,-0.0015,-0.0009,-0.0011,-0.0012,-0.0013,-0.0044,-0.0044,0,0,0,0,0,0,0.0123,0.0116,0.0111,0.0109,0.0109,0.0087,0.0084,0.0088,0.0053,0.0048,0.0071,0.0069,0.0021,0.0016,0.0011,0.0015,-0.0011,-0.0013,-0.0015,-0.0045,-0.0044,-0.0044,0,0,0,0,0,0,0.0123,0.0123,0.0112,0.0111,0.0108,0.0087,0.0091,0.0087,0.0082,0.005,0.0044,0.007,0.002,0.0014,-0.0001,0.0012,-0.0014,-0.0016,-0.0045,-0.0045,-0.0044,0.0014,0,0,0,0,0,0,0.0124,0.0124,0.0128,0.0112,0.0109,0.011,0.0091,0.0087,0.0081,0.0078,0.0047,0.0041,0.002,0.0003,-0.0003,0.0009,-0.0018,-0.0046,-0.0045,-0.0044,0.0012,0.0017,0.0021,0,0,0,0,0,0.0124,0.0134,0.0128,0.0127,0.0116,0.0111,0.0108,0.0091,0.0081,0.0084,0.0062,0.0042,0.0004,0.0001,-0.0005,0.0006,-0.0046,-0.0045,-0.0044,0.001,0.0016,0.0021,0,0,0,0,0,0,0.0135,0.0132,0.0125,0.0132,0.0125,0.0107,0.0106,0.0095,0.008,0.0076,0.0046,0.0039,0.0031,0.001,0.0008,-0.0001,-0.0024,-0.0024,0.002,0.0025,0.003,0.0044,-0.002,0,0,0,0,0,0.0141,0.0148,0.0139,0.0143,0.0142,0.0125,0.012,0.011,0.0095,0.0088,0.0067,0.0045,0.003,0.0021,0.0001,-0.0003,-0.0027,-0.0,0.0004,0.0009,0.0016,-0.001,-0.0006,-0.0041,-0.0041,-0.0041,0,0,0.0144,0.0144,0.0146,0.0146,0.0137,0.0145,0.0121,0.0118,0.0127,0.0083,0.0086,0.0059,0.0031,0.0026,0.0021,0.0011,0.0005,0.001,0.0014,0.0019,-0.0008,-0.0005,-0.0002,-0.004,-0.004,-0.004,0,0,0.016,0.0157,0.0171,0.017,0.0165,0.0157,0.016,0.0147,0.0145,0.0142,0.0114,0.0097,0.0073,0.0058,0.0047,0.0066,0.0029,0.0057,0.0095,0.007,0.0073,0.0075,0.0049,0.0049,0.0062,0.0062,0.0062,0,0.0164,0.0184,0.0173,0.0186,0.0193,0.0168,0.0188,0.0182,0.0166,0.017,0.0151,0.0119,0.0091,0.0091,0.0095,0.0078,0.0055,0.0077,0.0077,0.0079,0.008,0.0053,0.0051,0.0065,0.0065,0.0064,0.0064,0,0.0194,0.0208,0.0216,0.023,0.0235,0.0245,0.0241,0.0245,0.0236,0.0226,0.0221,0.0182,0.0165,0.0152,0.0128,0.0127,0.0105,0.0085,0.0065,0.0087,0.0057,0.0054,0.0069,0.0068,0.0067,0.0067,0,0,0.0209,0.0234,0.0237,0.026,0.0262,0.0274,0.0293,0.0306,0.0327,0.0297,0.0316,0.0277,0.0248,0.0233,0.0198,0.0175,0.0158,0.0137,0.0134,0.0116,0.0101,0.0082,0.0077,0.0136,0.0136,0.0136,0.0077,0,0.0237,0.0281,0.0284,0.0328,0.0353,0.0348,0.0372,0.0378,0.0375,0.0384,0.0342,0.0336,0.0282,0.0275,0.0242,0.0183,0.0154,0.0176,0.0079,0.0076,0.006,0.0075,0.0095,0.0044,0.0074,0.0074,0.0073,0,0.0271,0.0299,0.035,0.0396,0.0407,0.0428,0.0472,0.0491,0.049,0.0486,0.0465,0.0423,0.0387,0.0337,0.0244,0.026,0.0186,0.0133,0.0129,0.0091,0.0053,0.0027,0.0038,0.0068,0.0069,0.0069,0.007,0,0.0304,0.0349,0.0398,0.0411,0.0452,0.0482,0.0505,0.0521,0.0556,0.055,0.0566,0.0501,0.0485,0.0384,0.0266,0.0254,0.0161,0.0131,0.0043,0.004,0.0029,0.0026,0.0062,0.0062,0.0062,0.0062,0.0062,0,0.0342,0.038,0.042,0.0448,0.0518,0.0527,0.0596,0.061,0.0638,0.0688,0.0619,0.0639,0.0496,0.0421,0.0296,0.0167,0.018,0.0054,0.0027,0.005,0.0049,0.0046,0.0045,0.006,0.0061,0.0061,0.0061,0,0.0373,0.0395,0.0458,0.0513,0.0538,0.0588,0.0664,0.0712,0.0728,0.0793,0.0794,0.0744,0.0651,0.0498,0.0342,0.0222,0.0088,0.0034,0.007,0.0048,-0.0026,-0.0023,-0.0065,-0.0066,-0.0067,-0.0068,-0.0069,0,0.0394,0.0429,0.0509,0.0556,0.0585,0.066,0.0717,0.0757,0.0815,0.0865,0.0902,0.0833,0.0802,0.0561,0.0337,0.0118,0.0086,-0.0013,-0.0034,-0.0015,-0.0037,-0.0033,-0.0029,-0.0029,-0.0029,-0.0029,-0.0029,0,0.0436,0.0463,0.0516,0.0613,0.0683,0.0768,0.0852,0.0913,0.0972,0.1027,0.1079,0.1056,0.0839,0.0621,0.0318,0.0171,0.0022,-0.0025,-0.001,0.0003,0.0015,-0.0005,-0.0002,-0.0031,-0.0031,-0.0031,-0.0031,-0.0031,0.0468,0.0512,0.0584,0.0677,0.076,0.0865,0.0945,0.1036,0.114,0.1229,0.1203,0.1173,0.0929,0.0545,0.028,0.0002,0.0019,-0.0083,-0.0081,-0.0079,-0.0061,-0.0051,-0.0107,-0.0107,-0.0107,-0.0107,-0.0108,0,0.0511,0.0561,0.0645,0.0755,0.0845,0.0889,0.1028,0.1108,0.1236,0.1306,0.1343,0.1114,0.0867,0.0578,0.0167,-0.0074,-0.0087,-0.0152,-0.0118,-0.0114,-0.0111,-0.0094,-0.015,-0.0151,-0.0151,-0.0152,0,0,0.0536,0.0615,0.0655,0.0804,0.0885,0.1016,0.11,0.1217,0.1295,0.1366,0.1351,0.1304,0.0956,0.0649,0.0321,0.0079,0.004,0.0036,0.0099,0.0183,0.0189,-0.004,-0.0007,0,0,0,0,0]}],[{"header":{"parameterUnit":"m.s-1","parameterCategory":2,"la1":30.2991,"la2":30.254,"lo1":-89.0895,"lo2":-89.0444,"dy":0.0017,"dx":0.0017,"nx":28,"ny":28,"refTime":"2024-08-29T03:00:00:Z","depth":"4","parameterNumber":2,"parameterNumberName":"U-component_of_CURRENTS"},"data":[0,0,0,0,0,0,0,0,0,0,0,0,0,0,0,0,0,0,0,0,0,0,0,0,0,0,0,0,0,0,0,0,0,0,0,0,0,0,0,0,0,0,0,0,0,0,0,0,0,0,0,0,0,0,0,0,0,0,0.1408,0.1408,0,0.1453,0.1454,0.1454,0.1491,0.1492,0.1492,0.1493,0.1536,0.1537,0.1538,0,0,0,0,0,0,0,0,0,0,0,0,0,0.1339,0.134,0.1408,0.1408,0.1409,0.1453,0.1454,0.1454,0.1491,0.1492,0.1492,0.1493,0.1536,0.1537,0.1538,0,0,0,0,0,0,0,0,0,0,0,0,0,0.1373,0.1341,0.1407,0.1435,0.1438,0.1453,0.1454,0.1454,0.1491,0.1492,0.1493,0.1494,0.1536,0.1537,0.1538,0.1524,0,0,0.154,0.1541,0,0,0,0,0,0,0,0,0.1371,0.1375,0.143,0.1433,0.1437,0.147,0.1446,0.1478,0.149,0.1468,0.1493,0.1494,0.1515,0.1518,0.152,0.1526,0.1527,0.154,0.1541,0.1541,0.1541,0,0,0,0,0,0,0,0.1368,0.1373,0.1423,0.1431,0.1435,0.1441,0.1447,0.1452,0.1483,0.147,0.1473,0.1483,0.1517,0.1519,0.1522,0.1528,0.154,0.1541,0.1542,0.1542,0.1625,0.1627,0,0,0,0,0,0,0.1368,0.1371,0.1421,0.1424,0.1409,0.1442,0.1448,0.1456,0.1483,0.1489,0.1482,0.1484,0.1517,0.152,0.1523,0.1594,0.1541,0.1542,0.1542,0.1624,0.1626,0.1627,0,0,0,0,0,0,0.1367,0.1372,0.142,0.1401,0.1408,0.1442,0.1451,0.1456,0.1493,0.1493,0.1499,0.1517,0.1518,0.1522,0.156,0.1593,0.1542,0.1543,0.1621,0.1624,0.1627,0.168,0,0,0,0,0,0,0.1364,0.1371,0.1392,0.1401,0.1409,0.1448,0.145,0.1457,0.1497,0.1501,0.1524,0.1527,0.1519,0.1559,0.1561,0.1593,0.1544,0.1619,0.1623,0.1626,0.1676,0.1684,0.1691,0,0,0,0,0,0.1362,0.1379,0.1392,0.14,0.1431,0.1449,0.1454,0.1479,0.1498,0.1516,0.1538,0.1528,0.1581,0.1561,0.1563,0.1596,0.1618,0.1622,0.1625,0.1673,0.1682,0.1691,0,0,0,0,0,0,0.136,0.1385,0.14,0.1425,0.1448,0.1457,0.1483,0.1499,0.153,0.1546,0.1545,0.155,0.1595,0.1591,0.1569,0.1631,0.16,0.1604,0.1635,0.1644,0.1651,0.1661,0.1544,0,0,0,0,0,0.1369,0.1393,0.1412,0.1437,0.1452,0.1475,0.1493,0.151,0.1532,0.1548,0.1564,0.1586,0.1606,0.1623,0.1634,0.1666,0.167,0.1691,0.1699,0.1705,0.1716,0.175,0.1761,0.164,0.164,0.164,0,0,0.1376,0.1395,0.1409,0.144,0.1461,0.1483,0.1489,0.1525,0.1552,0.1547,0.1598,0.1612,0.1621,0.1658,0.1678,0.1663,0.1743,0.171,0.1715,0.1723,0.1755,0.1767,0.1777,0.1643,0.1642,0.1642,0,0,0.1388,0.142,0.144,0.1462,0.1502,0.1513,0.1532,0.1562,0.1589,0.1632,0.164,0.1679,0.1706,0.1721,0.173,0.1787,0.178,0.1796,0.1843,0.1876,0.1886,0.1894,0.1917,0.1927,0.1801,0.1801,0.1801,0,0.14,0.1424,0.145,0.1474,0.1497,0.1531,0.1555,0.1585,0.1625,0.1651,0.166,0.1725,0.1736,0.1781,0.1808,0.1804,0.1819,0.1804,0.1885,0.1894,0.1902,0.1922,0.1933,0.1804,0.1804,0.1803,0.1803,0,0.1416,0.1448,0.1465,0.1506,0.1534,0.1562,0.16,0.1641,0.1681,0.1706,0.1773,0.1795,0.1834,0.1848,0.1849,0.1916,0.1907,0.1887,0.1859,0.1917,0.1935,0.1946,0.1808,0.1807,0.1806,0.1805,0,0,0.1403,0.1464,0.1473,0.1497,0.1554,0.1573,0.163,0.1679,0.1726,0.1778,0.1836,0.1886,0.1911,0.1925,0.1936,0.1973,0.2048,0.1967,0.1967,0.1984,0.2124,0.1983,0.198,0.2046,0.2048,0.205,0.2114,0,0.141,0.1454,0.1485,0.1533,0.1557,0.1607,0.1654,0.171,0.1765,0.1831,0.1879,0.1939,0.1936,0.1973,0.2011,0.2043,0.2078,0.2033,0.207,0.2071,0.1934,0.1988,0.2057,0.2121,0.2123,0.2125,0.2126,0,0.1408,0.1441,0.1485,0.1547,0.1565,0.1605,0.1687,0.1735,0.183,0.1878,0.1948,0.1989,0.2069,0.2055,0.2139,0.2114,0.2131,0.2146,0.2148,0.2005,0.1948,0.2052,0.2145,0.2143,0.2142,0.2141,0.2139,0,0.1372,0.1437,0.1474,0.1495,0.1572,0.1614,0.1667,0.1757,0.1808,0.1924,0.1981,0.2061,0.2128,0.2163,0.2206,0.2187,0.2286,0.2251,0.2136,0.2126,0.221,0.2199,0.2306,0.2306,0.2306,0.2305,0.2305,0,0.1347,0.138,0.1468,0.1487,0.1543,0.1609,0.1684,0.1749,0.1853,0.1916,0.2012,0.207,0.2165,0.2226,0.2238,0.2219,0.231,0.2155,0.2136,0.2231,0.2222,0.2217,0.2205,0.2308,0.2307,0.2307,0.2306,0,0.1293,0.135,0.1397,0.1491,0.1526,0.1573,0.1688,0.1735,0.1851,0.1942,0.1988,0.2113,0.2187,0.2249,0.232,0.225,0.225,0.2219,0.2331,0.2315,0.206,0.2051,0.2088,0.2083,0.2079,0.2076,0.2074,0,0.1264,0.1286,0.1392,0.1426,0.1474,0.1556,0.1606,0.1724,0.1773,0.1942,0.197,0.21,0.2165,0.215,0.2222,0.2227,0.2198,0.2177,0.2103,0.2062,0.204,0.2037,0.2033,0.2068,0.2067,0.2066,0.2065,0,0.1208,0.1262,0.1303,0.1375,0.1434,0.1485,0.157,0.1593,0.1726,0.1854,0.1906,0.1945,0.2025,0.2062,0.2089,0.2085,0.2176,0.2138,0.2144,0.2074,0.2038,0.202,0.202,0.2052,0.2054,0.2055,0.2056,0,0.1173,0.1189,0.1255,0.1304,0.1372,0.1388,0.1444,0.1497,0.1559,0.1737,0.1752,0.1884,0.2007,0.199,0.2012,0.2001,0.196,0.1877,0.1896,0.1911,0.1822,0.1748,0.1665,0,0,0,0,0,0.113,0.1136,0.1177,0.1212,0.1273,0.1312,0.1403,0.146,0.1591,0.1581,0.1659,0.1719,0.176,0.1827,0.1778,0.193,0.1966,0.1863,0.188,0.198,0.1995,0.1905,0,0,0,0,0,0,0.1099,0.1136,0.1144,0.1125,0.1133,0.118,0.1233,0.1321,0.1318,0.1465,0.1496,0.1608,0.1675,0.1772,0.1745,0.1764,0.1735,0.1946,0.194,0.1972,0.1985,0.1997,0.1909,0,0,0,0,0]},{"header":{"parameterUnit":"m.s-1","parameterCategory":2,"la1":30.2991,"la2":30.254,"lo1":-89.0895,"lo2":-89.0444,"dy":0.0017,"dx":0.0017,"nx":28,"ny":28,"refTime":"2024-08-29T03:00:00:Z","depth":"4","parameterNumber":3,"parameterNumberName":"V-component_of_CURRENTS"},"data":[0,0,0,0,0,0,0,0,0,0,0,0,0,0,0,0,0,0,0,0,0,0,0,0,0,0,0,0,0,0,0,0,0,0,0,0,0,0,0,0,0,0,0,0,0,0,0,0,0,0,0,0,0,0,0,0,0,0,0.013,0.013,0,0.0107,0.0107,0.0107,0.0093,0.0093,0.0093,0.0093,0.0055,0.0054,0.0053,0,0,0,0,0,0,0,0,0,0,0,0,0,0.0133,0.0134,0.013,0.013,0.013,0.0107,0.0107,0.0107,0.0093,0.0093,0.0093,0.0093,0.0055,0.0054,0.0053,0,0,0,0,0,0,0,0,0,0,0,0,0,0.0124,0.0134,0.013,0.012,0.0119,0.0108,0.0107,0.0107,0.0093,0.0093,0.0093,0.0093,0.0056,0.0054,0.0053,0.0046,0,0,0.0049,0.0048,0,0,0,0,0,0,0,0,0.0124,0.0123,0.0122,0.0121,0.0119,0.0103,0.0094,0.0086,0.0093,0.0103,0.0093,0.0093,0.007,0.0067,0.0063,0.0044,0.0043,0.0049,0.0048,0.0047,0.0047,0,0,0,0,0,0,0,0.0125,0.0124,0.0121,0.0122,0.012,0.0107,0.0106,0.0093,0.0087,0.0102,0.0101,0.0099,0.0069,0.0065,0.0062,0.0042,0.0049,0.0047,0.0047,0.0046,0.0024,0.0025,0,0,0,0,0,0,0.0129,0.0125,0.0122,0.012,0.0122,0.0107,0.0106,0.0108,0.0087,0.0084,0.0099,0.0098,0.0067,0.0064,0.0061,0.0068,0.0047,0.0046,0.0045,0.0024,0.0025,0.0025,0,0,0,0,0,0,0.013,0.013,0.0123,0.0122,0.012,0.0107,0.011,0.0108,0.0107,0.0085,0.0081,0.01,0.0067,0.0063,0.0055,0.0066,0.0045,0.0044,0.0024,0.0024,0.0025,0.0071,0,0,0,0,0,0,0.013,0.013,0.0134,0.0122,0.012,0.0122,0.011,0.0108,0.0105,0.0104,0.0085,0.0081,0.0067,0.0057,0.0053,0.0063,0.0043,0.0024,0.0024,0.0025,0.0069,0.0073,0.0077,0,0,0,0,0,0.013,0.0137,0.0134,0.0134,0.0126,0.0122,0.012,0.011,0.0106,0.0108,0.0095,0.0082,0.0057,0.0056,0.0051,0.0062,0.0023,0.0024,0.0025,0.0068,0.0073,0.0077,0,0,0,0,0,0,0.0138,0.0136,0.0133,0.0138,0.0133,0.012,0.012,0.0114,0.0106,0.0104,0.0085,0.008,0.0077,0.0061,0.006,0.0056,0.0038,0.0038,0.0073,0.0077,0.0081,0.0091,0.0042,0,0,0,0,0,0.0142,0.0148,0.0142,0.0145,0.0145,0.0134,0.0131,0.0125,0.0115,0.0112,0.0099,0.0085,0.0075,0.007,0.0057,0.0055,0.0032,0.0058,0.0062,0.0065,0.007,0.0043,0.0045,0.0027,0.0027,0.0027,0,0,0.0145,0.0145,0.0148,0.0148,0.0142,0.0149,0.0132,0.0131,0.014,0.0108,0.0115,0.0096,0.0077,0.0076,0.0073,0.0065,0.0058,0.0066,0.0069,0.0072,0.0044,0.0046,0.0048,0.0027,0.0027,0.0027,0,0,0.0157,0.0156,0.0166,0.0166,0.0163,0.0159,0.0161,0.0153,0.0153,0.0154,0.0135,0.0124,0.011,0.01,0.0093,0.0108,0.0076,0.0102,0.0131,0.0105,0.0106,0.0107,0.0079,0.0077,0.0106,0.0106,0.0106,0,0.016,0.0175,0.0167,0.0178,0.0185,0.0167,0.0183,0.0181,0.0171,0.0175,0.0163,0.0142,0.0124,0.0126,0.013,0.0117,0.0094,0.0118,0.011,0.0111,0.0111,0.0081,0.0078,0.0108,0.0108,0.0108,0.0107,0,0.0181,0.0194,0.02,0.0213,0.0218,0.0226,0.0225,0.0231,0.0227,0.022,0.0219,0.0192,0.0181,0.0172,0.0156,0.0152,0.0131,0.0117,0.0101,0.0115,0.0083,0.008,0.0112,0.0111,0.011,0.0109,0,0,0.0188,0.0211,0.0215,0.0234,0.024,0.0249,0.0267,0.0279,0.0295,0.0276,0.0289,0.0267,0.0244,0.0235,0.0209,0.0186,0.0164,0.0155,0.0152,0.013,0.0102,0.009,0.0084,0.0146,0.0145,0.0145,0.0079,0,0.0209,0.0244,0.0249,0.0286,0.0306,0.0307,0.0328,0.0334,0.0333,0.0338,0.0309,0.0306,0.0271,0.0266,0.0237,0.0184,0.0157,0.0183,0.0088,0.0086,0.0076,0.008,0.0144,0.0076,0.0075,0.0074,0.0073,0,0.0231,0.0255,0.0296,0.0337,0.0346,0.0366,0.0401,0.0418,0.0416,0.0414,0.0398,0.0368,0.0338,0.0304,0.0221,0.0237,0.0175,0.0128,0.0124,0.0095,0.0067,0.0057,0.0066,0.0067,0.0067,0.0068,0.0068,0,0.025,0.0291,0.033,0.0343,0.038,0.0406,0.0427,0.044,0.0466,0.0461,0.0468,0.0419,0.0403,0.032,0.0224,0.022,0.0123,0.0105,0.0034,0.0032,0.0042,0.0042,0.0042,0.0043,0.0043,0.0043,0.0043,0,0.0273,0.0306,0.0346,0.0368,0.0423,0.0437,0.049,0.0503,0.0523,0.0554,0.0508,0.0513,0.0405,0.0337,0.0239,0.0127,0.0132,0.004,0.0016,0.0063,0.0066,0.0039,0.004,0.004,0.0041,0.0041,0.0042,0,0.0287,0.0311,0.0362,0.0412,0.0435,0.0475,0.0539,0.0573,0.0586,0.0626,0.0627,0.0582,0.0496,0.0378,0.0243,0.0156,0.0044,0.0,0.006,0.004,-0.0035,-0.0031,-0.0082,-0.0083,-0.0084,-0.0085,-0.0085,0,0.0295,0.0323,0.0394,0.0432,0.046,0.0522,0.0567,0.0604,0.0642,0.0669,0.0688,0.0624,0.0576,0.0383,0.0248,0.0058,0.0027,-0.0038,-0.0039,-0.0028,-0.0047,-0.0042,-0.0037,-0.0086,-0.0087,-0.0087,-0.0087,0,0.0312,0.0339,0.0381,0.0461,0.052,0.0588,0.0654,0.0687,0.0733,0.0743,0.0741,0.0647,0.0549,0.0392,0.0243,0.0105,0.0,-0.0047,-0.0047,-0.0048,-0.0034,-0.0051,-0.0045,-0.009,-0.0089,-0.0089,-0.0089,0,0.0326,0.0357,0.0417,0.0488,0.0562,0.0635,0.0671,0.072,0.0759,0.0785,0.0782,0.0679,0.062,0.0416,0.028,0.0142,0.0103,0.0048,0.0043,0.0044,0.0096,0.0132,0.011,0,0,0,0,0,0.0339,0.0377,0.044,0.0521,0.0594,0.0644,0.0722,0.0751,0.0794,0.0799,0.0795,0.0705,0.0516,0.0435,0.0296,0.0249,0.0067,0.0078,-0.0002,-0.0105,-0.0102,-0.0064,0,0,0,0,0,0,0.0348,0.0407,0.0439,0.0536,0.0595,0.0683,0.0737,0.0768,0.0772,0.079,0.0694,0.0656,0.0471,0.0596,0.0289,0.0248,0.0174,-0.0006,-0.001,-0.0107,-0.0104,-0.0101,-0.0061,0,0,0,0,0]}]]